User: anonymous   Login
Location: Unspecified
(44.5899°N, 128.9834°E)
Time: 13:12:14
(UTC+08:00)
Language:

Resurs 01 Rocket - Orbit

View from above orbital plane
View from above orbital plane
View from above satellite
View from above satellite

Ground track
Ground track

The orbit data is extracted from the following two-line orbital elements,

1 23343U 94074B   18147.57114321  .00000010  00000-0  88760-5 0  9999
2 23343  98.1061 192.1631 0007967  55.3263  88.7034 14.76731970267659
Epoch (UTC): 27 May 2018 13:42:26
Eccentricity: 0.0007967
inclination: 98.1061°
perigee height: 634 km
apogee height: 645 km
right ascension of ascending node: 192.1631°
argument of perigee: 55.3263°
revolutions per day: 14.76731970
mean anomaly at epoch: 88.7034°
orbit number at epoch: 26765

The dashed part of the orbit path shows where the satellite is in the earth's shadow,  

DLR